N1065E GAGO-DRRN

Flight info

Callsign N1065E
Flight time 1h 58m
Altitude 8000
Route DCT
Aircraft C172/L-VGDW/C

Departure

Time 2026-04-22 18:02
Airport Gao International Airport (GAGO)

Arrival

Time 2026-04-22 20:00
Airport Diori Hamani International Airport (DRRN)
Time Latitude Longitude Altitude Speed Heading
2026-04-22 17:42 16.25073 -0.00675 847 ft 0 kts 334°
2026-04-22 17:59 16.25074 -0.00694 843 ft 5 kts 244°
2026-04-22 17:59 16.25059 -0.00726 844 ft 8 kts 244°
2026-04-22 17:59 16.24992 -0.00762 846 ft 13 kts 140°
2026-04-22 17:59 16.24963 -0.00679 840 ft 11 kts 119°
2026-04-22 18:00 16.24928 -0.00651 847 ft 10 kts 147°
2026-04-22 18:00 16.24825 -0.00586 848 ft 8 kts 118°
2026-04-22 18:00 16.24826 -0.00577 849 ft 0 kts 58°
2026-04-22 18:00 16.24926 -0.00383 851 ft 64 kts 63°
2026-04-22 18:01 16.25205 0.00168 924 ft 98 kts 62°
2026-04-22 18:01 16.25558 0.00819 1082 ft 107 kts 60°
2026-04-22 18:01 16.25933 0.01514 1212 ft 111 kts 60°
2026-04-22 18:01 16.26317 0.02187 1426 ft 107 kts 60°
2026-04-22 18:02 16.26355 0.02902 1644 ft 109 kts 121°
2026-04-22 18:02 16.25642 0.03124 1865 ft 116 kts 190°
2026-04-22 18:02 16.24812 0.02974 2011 ft 125 kts 188°
2026-04-22 18:02 16.23940 0.02824 2156 ft 128 kts 188°
2026-04-22 18:03 16.23063 0.02642 2303 ft 131 kts 189°
2026-04-22 18:03 16.22162 0.02434 2444 ft 133 kts 190°
2026-04-22 18:03 16.21262 0.02234 2589 ft 132 kts 189°
2026-04-22 18:03 16.20356 0.02047 2726 ft 133 kts 187°
2026-04-22 18:04 16.19434 0.01918 2860 ft 134 kts 169°
2026-04-22 18:04 16.18545 0.02176 2989 ft 134 kts 155°
2026-04-22 18:04 16.17650 0.02526 2998 ft 139 kts 154°
2026-04-22 18:04 16.16753 0.02881 3004 ft 134 kts 154°
2026-04-22 18:05 16.15936 0.03167 2994 ft 116 kts 155°
2026-04-22 18:05 16.15193 0.03435 2989 ft 113 kts 154°
2026-04-22 18:05 16.14442 0.03731 2992 ft 117 kts 149°
2026-04-22 18:05 16.13713 0.04131 2993 ft 119 kts 146°
2026-04-22 18:06 16.12990 0.04546 2995 ft 120 kts 144°
2026-04-22 18:06 16.12268 0.04985 2996 ft 120 kts 144°
2026-04-22 18:06 16.11559 0.05428 2996 ft 119 kts 142°
2026-04-22 18:06 16.10844 0.05873 2996 ft 120 kts 144°
2026-04-22 18:07 16.10371 0.06169 2994 ft 119 kts 145°
2026-04-22 18:07 16.09432 0.06774 2993 ft 118 kts 144°
2026-04-22 18:07 16.08731 0.07220 2994 ft 118 kts 143°
2026-04-22 18:07 16.08033 0.07647 2993 ft 118 kts 144°
2026-04-22 18:08 16.07333 0.08083 2993 ft 117 kts 143°
2026-04-22 18:08 16.06628 0.08512 2993 ft 117 kts 144°
2026-04-22 18:08 16.05923 0.08938 2993 ft 117 kts 143°
2026-04-22 18:08 16.05216 0.09360 2993 ft 116 kts 144°
2026-04-22 18:09 16.04530 0.09798 2992 ft 115 kts 144°
2026-04-22 18:09 16.03850 0.10225 2992 ft 114 kts 144°
2026-04-22 18:09 16.03165 0.10637 2992 ft 114 kts 144°
2026-04-22 18:09 16.02484 0.11055 2991 ft 113 kts 143°
2026-04-22 18:10 16.01805 0.11470 2992 ft 113 kts 144°
2026-04-22 18:10 16.01132 0.11893 2990 ft 113 kts 143°
2026-04-22 18:10 16.00460 0.12317 2991 ft 113 kts 143°
2026-04-22 18:10 15.99785 0.12737 2991 ft 114 kts 143°
2026-04-22 18:11 15.99094 0.13139 2994 ft 114 kts 144°
2026-04-22 18:11 15.98406 0.13522 2994 ft 113 kts 143°
2026-04-22 18:11 15.97711 0.13910 2994 ft 114 kts 143°
2026-04-22 18:11 15.97017 0.14306 2995 ft 114 kts 143°
2026-04-22 18:12 15.96320 0.14704 2993 ft 114 kts 143°
2026-04-22 18:12 15.95619 0.15098 2994 ft 115 kts 143°
2026-04-22 18:12 15.95151 0.15354 2991 ft 115 kts 143°
2026-04-22 18:12 15.94448 0.15742 2992 ft 114 kts 143°
2026-04-22 18:13 15.93739 0.16135 2995 ft 116 kts 143°
2026-04-22 18:13 15.93079 0.16593 2990 ft 112 kts 131°
2026-04-22 18:13 15.92485 0.17119 2988 ft 112 kts 132°
2026-04-22 18:13 15.91897 0.17648 2987 ft 111 kts 130°
2026-04-22 18:14 15.91312 0.18162 2988 ft 111 kts 131°
2026-04-22 18:14 15.90717 0.18693 2988 ft 111 kts 131°
2026-04-22 18:14 15.90134 0.19222 2989 ft 111 kts 131°
2026-04-22 18:14 15.89553 0.19739 2989 ft 111 kts 132°
2026-04-22 18:15 15.88969 0.20271 2991 ft 111 kts 131°
2026-04-22 18:15 15.88379 0.20794 2991 ft 111 kts 131°
2026-04-22 18:15 15.87788 0.21314 2991 ft 111 kts 132°
2026-04-22 18:15 15.87199 0.21841 2991 ft 112 kts 131°
2026-04-22 18:16 15.86600 0.22365 2988 ft 113 kts 131°
2026-04-22 18:16 15.85994 0.22889 2989 ft 113 kts 131°
2026-04-22 18:16 15.85387 0.23414 2988 ft 114 kts 131°
2026-04-22 18:16 15.84782 0.23949 2987 ft 114 kts 130°
2026-04-22 18:17 15.84188 0.24484 2988 ft 114 kts 130°
2026-04-22 18:17 15.83583 0.25023 2989 ft 114 kts 131°
2026-04-22 18:17 15.82973 0.25560 2990 ft 115 kts 132°
2026-04-22 18:17 15.82368 0.26103 2991 ft 115 kts 131°
2026-04-22 18:18 15.81761 0.26651 2995 ft 116 kts 131°
2026-04-22 18:18 15.81157 0.27191 2996 ft 116 kts 132°
2026-04-22 18:18 15.80544 0.27731 2997 ft 116 kts 131°
2026-04-22 18:18 15.79923 0.28265 2997 ft 116 kts 133°
2026-04-22 18:19 15.79309 0.28804 2994 ft 116 kts 131°
2026-04-22 18:19 15.78700 0.29349 2992 ft 113 kts 125°
2026-04-22 18:19 15.78283 0.30015 2988 ft 109 kts 112°
2026-04-22 18:19 15.77893 0.30696 2988 ft 110 kts 112°
2026-04-22 18:20 15.77509 0.31381 2990 ft 110 kts 112°
2026-04-22 18:20 15.77131 0.32063 2988 ft 110 kts 113°
2026-04-22 18:20 15.76749 0.32749 2989 ft 109 kts 113°
2026-04-22 18:20 15.76384 0.33431 2989 ft 107 kts 112°
2026-04-22 18:21 15.76028 0.34108 2992 ft 106 kts 112°
2026-04-22 18:21 15.75666 0.34777 2991 ft 106 kts 113°
2026-04-22 18:21 15.75309 0.35446 2992 ft 106 kts 112°
2026-04-22 18:21 15.74946 0.36111 2991 ft 106 kts 112°
2026-04-22 18:22 15.74588 0.36782 2994 ft 106 kts 112°
2026-04-22 18:22 15.74242 0.37460 2994 ft 106 kts 112°
2026-04-22 18:22 15.73904 0.38128 2994 ft 106 kts 113°
2026-04-22 18:22 15.73555 0.38802 2991 ft 106 kts 112°
2026-04-22 18:23 15.73192 0.39464 2991 ft 105 kts 112°
2026-04-22 18:23 15.72732 0.40056 2993 ft 113 kts 139°
2026-04-22 18:23 15.72039 0.40455 2993 ft 113 kts 142°
2026-04-22 18:24 15.70702 0.41289 3000 ft 113 kts 141°
2026-04-22 18:24 15.70031 0.41713 3002 ft 113 kts 141°
2026-04-22 18:24 15.68682 0.42536 2998 ft 111 kts 141°
2026-04-22 18:25 15.68006 0.42933 3002 ft 112 kts 142°
2026-04-22 18:25 15.67330 0.43345 3003 ft 113 kts 142°
2026-04-22 18:25 15.66659 0.43780 3006 ft 114 kts 142°
2026-04-22 18:26 15.65298 0.44661 3005 ft 118 kts 141°
2026-04-22 18:26 15.64597 0.45106 3006 ft 119 kts 141°
2026-04-22 18:26 15.63890 0.45556 3005 ft 120 kts 142°
2026-04-22 18:26 15.63190 0.46017 3005 ft 118 kts 141°
2026-04-22 18:27 15.62496 0.46476 3005 ft 118 kts 141°
2026-04-22 18:27 15.61807 0.46932 3004 ft 117 kts 141°
2026-04-22 18:27 15.61121 0.47384 3002 ft 116 kts 141°
2026-04-22 18:27 15.60444 0.47831 2999 ft 114 kts 141°
2026-04-22 18:28 15.59781 0.48263 2999 ft 113 kts 141°
2026-04-22 18:28 15.59116 0.48691 2996 ft 111 kts 141°
2026-04-22 18:28 15.58456 0.49105 2994 ft 110 kts 141°
2026-04-22 18:28 15.57804 0.49512 2990 ft 109 kts 141°
2026-04-22 18:29 15.57160 0.49911 2989 ft 108 kts 141°
2026-04-22 18:29 15.56521 0.50306 2991 ft 107 kts 141°
2026-04-22 18:29 15.55886 0.50699 2991 ft 106 kts 141°
2026-04-22 18:29 15.55251 0.51091 2991 ft 106 kts 141°
2026-04-22 18:30 15.54618 0.51480 2993 ft 105 kts 141°
2026-04-22 18:30 15.53366 0.52248 2997 ft 109 kts 141°
2026-04-22 18:30 15.52710 0.52660 3003 ft 112 kts 141°
2026-04-22 18:31 15.52038 0.53085 3011 ft 115 kts 141°
2026-04-22 18:31 15.51380 0.53566 3010 ft 117 kts 135°
2026-04-22 18:31 15.50727 0.54094 3009 ft 120 kts 135°
2026-04-22 18:31 15.50062 0.54635 3008 ft 122 kts 135°
2026-04-22 18:32 15.49391 0.55184 3006 ft 123 kts 135°
2026-04-22 18:32 15.48728 0.55731 3007 ft 124 kts 135°
2026-04-22 18:32 15.48054 0.56290 3005 ft 124 kts 135°
2026-04-22 18:32 15.47382 0.56848 3005 ft 123 kts 135°
2026-04-22 18:33 15.46711 0.57406 3004 ft 123 kts 135°
2026-04-22 18:33 15.46041 0.57963 3004 ft 123 kts 135°
2026-04-22 18:33 15.45372 0.58520 3004 ft 123 kts 135°
2026-04-22 18:33 15.44704 0.59076 3004 ft 123 kts 135°
2026-04-22 18:34 15.44036 0.59634 3001 ft 123 kts 135°
2026-04-22 18:34 15.43367 0.60191 3001 ft 123 kts 135°
2026-04-22 18:34 15.42707 0.60741 3001 ft 123 kts 135°
2026-04-22 18:34 15.42038 0.61298 3006 ft 123 kts 135°
2026-04-22 18:35 15.41372 0.61853 3006 ft 123 kts 135°
2026-04-22 18:35 15.40705 0.62409 3006 ft 123 kts 135°
2026-04-22 18:35 15.40040 0.62961 3005 ft 122 kts 135°
2026-04-22 18:35 15.39377 0.63512 3005 ft 122 kts 135°
2026-04-22 18:36 15.38716 0.64061 3004 ft 122 kts 135°
2026-04-22 18:36 15.38053 0.64607 3004 ft 121 kts 135°
2026-04-22 18:36 15.37393 0.65148 3003 ft 121 kts 135°
2026-04-22 18:36 15.36735 0.65686 3003 ft 120 kts 135°
2026-04-22 18:37 15.36078 0.66221 3002 ft 120 kts 135°
2026-04-22 18:37 15.35429 0.66749 3001 ft 120 kts 135°
2026-04-22 18:37 15.34985 0.67111 3000 ft 120 kts 135°
2026-04-22 18:37 15.34113 0.67824 3001 ft 120 kts 135°
2026-04-22 18:38 15.33451 0.68365 2998 ft 121 kts 135°
2026-04-22 18:38 15.32791 0.68905 2999 ft 121 kts 135°
2026-04-22 18:38 15.32138 0.69438 2999 ft 121 kts 135°
2026-04-22 18:39 15.30808 0.70523 2998 ft 122 kts 135°
2026-04-22 18:39 15.30140 0.71065 2999 ft 122 kts 135°
2026-04-22 18:39 15.29471 0.71606 2999 ft 122 kts 135°
2026-04-22 18:39 15.28802 0.72146 2999 ft 122 kts 135°
2026-04-22 18:40 15.28132 0.72693 3011 ft 124 kts 135°
2026-04-22 18:40 15.27455 0.73259 3013 ft 126 kts 135°
2026-04-22 18:40 15.26771 0.73831 3012 ft 127 kts 135°
2026-04-22 18:40 15.26083 0.74407 3012 ft 127 kts 135°
2026-04-22 18:41 15.25404 0.74978 3013 ft 127 kts 135°
2026-04-22 18:41 15.24715 0.75558 3012 ft 127 kts 135°
2026-04-22 18:41 15.24026 0.76137 3012 ft 127 kts 135°
2026-04-22 18:41 15.23333 0.76715 3018 ft 128 kts 135°
2026-04-22 18:42 15.22627 0.77289 3017 ft 129 kts 135°
2026-04-22 18:42 15.21912 0.77863 3017 ft 130 kts 135°
2026-04-22 18:42 15.21191 0.78439 3012 ft 131 kts 135°
2026-04-22 18:42 15.20471 0.79013 3012 ft 130 kts 135°
2026-04-22 18:43 15.19764 0.79577 3008 ft 126 kts 136°
2026-04-22 18:43 15.19082 0.80133 3005 ft 123 kts 135°
2026-04-22 18:43 15.18420 0.80671 3002 ft 122 kts 135°
2026-04-22 18:43 15.17755 0.81214 2999 ft 121 kts 136°
2026-04-22 18:44 15.17105 0.81755 3000 ft 119 kts 135°
2026-04-22 18:44 15.16462 0.82292 3000 ft 119 kts 135°
2026-04-22 18:44 15.15818 0.82831 3000 ft 119 kts 135°
2026-04-22 18:44 15.15173 0.83370 3000 ft 119 kts 135°
2026-04-22 18:45 15.14526 0.83909 2995 ft 120 kts 135°
2026-04-22 18:45 15.13872 0.84450 2996 ft 121 kts 135°
2026-04-22 18:45 15.13213 0.84992 2997 ft 121 kts 135°
2026-04-22 18:45 15.12555 0.85533 2996 ft 121 kts 135°
2026-04-22 18:46 15.11898 0.86075 3003 ft 121 kts 135°
2026-04-22 18:46 15.11239 0.86629 3005 ft 122 kts 135°
2026-04-22 18:46 15.10584 0.87181 3007 ft 123 kts 135°
2026-04-22 18:46 15.09919 0.87741 3008 ft 123 kts 135°
2026-04-22 18:47 15.09253 0.88301 3003 ft 123 kts 135°
2026-04-22 18:47 15.08585 0.88854 3001 ft 122 kts 135°
2026-04-22 18:47 15.07919 0.89403 3000 ft 122 kts 135°
2026-04-22 18:47 15.07258 0.89947 2999 ft 121 kts 135°
2026-04-22 18:48 15.06597 0.90490 3000 ft 121 kts 135°
2026-04-22 18:48 15.05944 0.91027 3000 ft 121 kts 135°
2026-04-22 18:48 15.05282 0.91571 2999 ft 121 kts 135°
2026-04-22 18:48 15.04622 0.92113 2999 ft 121 kts 135°
2026-04-22 18:49 15.03963 0.92654 3001 ft 121 kts 135°
2026-04-22 18:49 15.03305 0.93195 3001 ft 121 kts 135°
2026-04-22 18:49 15.02646 0.93740 3000 ft 121 kts 135°
2026-04-22 18:49 15.01988 0.94287 3000 ft 122 kts 135°
2026-04-22 18:50 15.01329 0.94835 2996 ft 120 kts 135°
2026-04-22 18:50 15.00679 0.95371 2996 ft 119 kts 135°
2026-04-22 18:50 15.00031 0.95902 2996 ft 119 kts 135°
2026-04-22 18:50 14.99379 0.96430 2996 ft 119 kts 135°
2026-04-22 18:51 14.98726 0.96948 2995 ft 118 kts 135°
2026-04-22 18:51 14.98085 0.97451 2993 ft 116 kts 136°
2026-04-22 18:51 14.97444 0.97961 2991 ft 116 kts 135°
2026-04-22 18:51 14.96807 0.98476 2991 ft 115 kts 135°
2026-04-22 18:52 14.96176 0.98989 2994 ft 115 kts 135°
2026-04-22 18:52 14.95545 0.99502 2992 ft 115 kts 135°
2026-04-22 18:52 14.94916 1.00012 2992 ft 115 kts 135°
2026-04-22 18:52 14.94295 1.00511 2992 ft 114 kts 135°
2026-04-22 18:53 14.93664 1.01013 2991 ft 115 kts 135°
2026-04-22 18:53 14.93031 1.01520 2991 ft 115 kts 135°
2026-04-22 18:53 14.92397 1.02026 2992 ft 115 kts 135°
2026-04-22 18:53 14.91751 1.02533 2999 ft 117 kts 135°
2026-04-22 18:54 14.91085 1.03047 3001 ft 121 kts 135°
2026-04-22 18:54 14.90412 1.03566 3003 ft 123 kts 135°
2026-04-22 18:54 14.89725 1.04095 3006 ft 123 kts 135°
2026-04-22 18:54 14.89036 1.04628 3008 ft 124 kts 135°
2026-04-22 18:55 14.88343 1.05161 3006 ft 124 kts 135°
2026-04-22 18:55 14.87650 1.05692 3007 ft 124 kts 135°
2026-04-22 18:55 14.86956 1.06223 3007 ft 124 kts 135°
2026-04-22 18:55 14.86261 1.06752 3006 ft 124 kts 135°
2026-04-22 18:56 14.85575 1.07273 3012 ft 124 kts 135°
2026-04-22 18:56 14.84881 1.07798 3010 ft 123 kts 135°
2026-04-22 18:56 14.84192 1.08318 3009 ft 122 kts 135°
2026-04-22 18:56 14.83506 1.08835 3009 ft 122 kts 135°
2026-04-22 18:57 14.82819 1.09351 3005 ft 122 kts 135°
2026-04-22 18:57 14.82134 1.09865 3004 ft 121 kts 135°
2026-04-22 18:57 14.81452 1.10379 3002 ft 121 kts 135°
2026-04-22 18:57 14.80779 1.10890 3002 ft 121 kts 135°
2026-04-22 18:58 14.80102 1.11404 3005 ft 121 kts 135°
2026-04-22 18:58 14.79419 1.11925 3006 ft 122 kts 135°
2026-04-22 18:58 14.78735 1.12447 3007 ft 122 kts 135°
2026-04-22 18:58 14.78046 1.12972 3009 ft 123 kts 135°
2026-04-22 18:59 14.77357 1.13497 3010 ft 123 kts 135°
2026-04-22 18:59 14.76723 1.14075 3007 ft 120 kts 126°
2026-04-22 18:59 14.76128 1.14684 3005 ft 120 kts 127°
2026-04-22 18:59 14.75529 1.15273 3005 ft 121 kts 128°
2026-04-22 19:00 14.75113 1.15675 3005 ft 121 kts 128°
2026-04-22 19:00 14.74298 1.16458 3005 ft 121 kts 128°
2026-04-22 19:00 14.73681 1.17047 3004 ft 120 kts 128°
2026-04-22 19:00 14.73072 1.17629 3003 ft 119 kts 128°
2026-04-22 19:01 14.72464 1.18210 3003 ft 119 kts 128°
2026-04-22 19:01 14.72062 1.18594 3002 ft 119 kts 128°
2026-04-22 19:01 14.71457 1.19172 3001 ft 118 kts 128°
2026-04-22 19:01 14.70853 1.19748 3001 ft 118 kts 128°
2026-04-22 19:02 14.70249 1.20325 3000 ft 118 kts 128°
2026-04-22 19:02 14.69448 1.21090 3000 ft 118 kts 128°
2026-04-22 19:02 14.69038 1.21480 3000 ft 119 kts 128°
2026-04-22 19:02 14.68433 1.22058 3000 ft 118 kts 128°
2026-04-22 19:03 14.67834 1.22629 3000 ft 118 kts 128°
2026-04-22 19:03 14.67230 1.23205 2999 ft 118 kts 128°
2026-04-22 19:03 14.66627 1.23780 2999 ft 118 kts 128°
2026-04-22 19:03 14.66022 1.24358 2999 ft 118 kts 128°
2026-04-22 19:04 14.65416 1.24935 3005 ft 118 kts 128°
2026-04-22 19:04 14.64812 1.25512 3005 ft 118 kts 128°
2026-04-22 19:04 14.64206 1.26090 3000 ft 118 kts 128°
2026-04-22 19:04 14.63600 1.26667 3000 ft 118 kts 128°
2026-04-22 19:05 14.62994 1.27245 3000 ft 118 kts 128°
2026-04-22 19:05 14.62397 1.27815 3000 ft 118 kts 128°
2026-04-22 19:05 14.61791 1.28392 3000 ft 118 kts 128°
2026-04-22 19:05 14.61187 1.28968 3000 ft 118 kts 128°
2026-04-22 19:06 14.60583 1.29544 2997 ft 118 kts 128°
2026-04-22 19:06 14.59981 1.30117 2996 ft 118 kts 128°
2026-04-22 19:06 14.59378 1.30693 2996 ft 118 kts 128°
2026-04-22 19:07 14.58179 1.31835 2995 ft 117 kts 128°
2026-04-22 19:07 14.57578 1.32408 2995 ft 117 kts 128°
2026-04-22 19:07 14.56977 1.32980 2995 ft 117 kts 128°
2026-04-22 19:07 14.56377 1.33552 2995 ft 117 kts 128°
2026-04-22 19:08 14.55776 1.34124 2998 ft 117 kts 128°
2026-04-22 19:08 14.55176 1.34696 2998 ft 117 kts 128°
2026-04-22 19:08 14.54577 1.35267 2998 ft 117 kts 128°
2026-04-22 19:08 14.53983 1.35832 2998 ft 117 kts 128°
2026-04-22 19:09 14.53341 1.36362 2998 ft 119 kts 134°
2026-04-22 19:09 14.52696 1.36889 2998 ft 118 kts 132°
2026-04-22 19:09 14.52048 1.37419 2999 ft 119 kts 133°
2026-04-22 19:09 14.51397 1.37947 3003 ft 119 kts 133°
2026-04-22 19:10 14.50742 1.38476 3006 ft 119 kts 133°
2026-04-22 19:10 14.50099 1.38991 3004 ft 115 kts 133°
2026-04-22 19:10 14.49477 1.39492 3000 ft 112 kts 132°
2026-04-22 19:10 14.48866 1.39984 2999 ft 111 kts 132°
2026-04-22 19:11 14.48259 1.40474 2997 ft 111 kts 132°
2026-04-22 19:11 14.47660 1.40956 2998 ft 110 kts 132°
2026-04-22 19:11 14.47053 1.41445 2996 ft 111 kts 132°
2026-04-22 19:11 14.46445 1.41935 2997 ft 111 kts 132°
2026-04-22 19:12 14.45833 1.42427 2999 ft 112 kts 132°
2026-04-22 19:12 14.45220 1.42920 3000 ft 112 kts 132°
2026-04-22 19:12 14.44605 1.43414 2999 ft 112 kts 133°
2026-04-22 19:12 14.43996 1.43904 2996 ft 110 kts 133°
2026-04-22 19:13 14.43404 1.44380 2999 ft 109 kts 133°
2026-04-22 19:13 14.42807 1.44861 2999 ft 108 kts 133°
2026-04-22 19:13 14.42218 1.45336 3001 ft 108 kts 133°
2026-04-22 19:13 14.41616 1.45821 3004 ft 112 kts 133°
2026-04-22 19:14 14.40995 1.46321 3004 ft 114 kts 133°
2026-04-22 19:14 14.40366 1.46827 3008 ft 115 kts 133°
2026-04-22 19:14 14.39734 1.47335 3010 ft 115 kts 134°
2026-04-22 19:14 14.39100 1.47844 3012 ft 115 kts 134°
2026-04-22 19:15 14.38680 1.48182 3012 ft 115 kts 134°
2026-04-22 19:15 14.37831 1.48864 3014 ft 116 kts 134°
2026-04-22 19:15 14.37201 1.49371 3014 ft 116 kts 134°
2026-04-22 19:15 14.36563 1.49883 3015 ft 116 kts 133°
2026-04-22 19:16 14.35925 1.50396 3017 ft 116 kts 133°
2026-04-22 19:16 14.35289 1.50907 3009 ft 115 kts 133°
2026-04-22 19:16 14.34662 1.51411 3009 ft 114 kts 133°
2026-04-22 19:16 14.34032 1.51917 3010 ft 116 kts 133°
2026-04-22 19:17 14.33394 1.52431 3007 ft 116 kts 133°
2026-04-22 19:17 14.32759 1.52939 3008 ft 114 kts 131°
2026-04-22 19:17 14.32137 1.53438 3005 ft 113 kts 131°
2026-04-22 19:17 14.31526 1.53930 3001 ft 112 kts 130°
2026-04-22 19:18 14.30915 1.54418 2999 ft 111 kts 133°
2026-04-22 19:18 14.30116 1.54489 2998 ft 130 kts 205°
2026-04-22 19:18 14.29333 1.53999 3011 ft 133 kts 211°
2026-04-22 19:18 14.28525 1.53499 3016 ft 137 kts 211°
2026-04-22 19:19 14.27699 1.52997 3016 ft 139 kts 212°
2026-04-22 19:19 14.26860 1.52494 3014 ft 140 kts 211°
2026-04-22 19:19 14.26030 1.51973 3015 ft 139 kts 211°
2026-04-22 19:19 14.25201 1.51450 3013 ft 141 kts 212°
2026-04-22 19:20 14.24364 1.50928 3013 ft 139 kts 211°
2026-04-22 19:20 14.23535 1.50415 3013 ft 139 kts 212°
2026-04-22 19:20 14.22707 1.49904 3012 ft 139 kts 211°
2026-04-22 19:20 14.21893 1.49393 3008 ft 138 kts 211°
2026-04-22 19:21 14.21071 1.48879 3007 ft 137 kts 207°
2026-04-22 19:21 14.20275 1.48352 3012 ft 135 kts 211°
2026-04-22 19:21 14.19494 1.47821 3012 ft 134 kts 211°
2026-04-22 19:21 14.18719 1.47285 3011 ft 134 kts 210°
2026-04-22 19:22 14.17878 1.47170 2988 ft 119 kts 145°
2026-04-22 19:22 14.17366 1.47755 2997 ft 109 kts 119°
2026-04-22 19:22 14.16917 1.48376 2999 ft 109 kts 120°
2026-04-22 19:22 14.16462 1.49006 3000 ft 109 kts 120°
2026-04-22 19:23 14.16007 1.49635 3001 ft 110 kts 120°
2026-04-22 19:23 14.15550 1.50266 3001 ft 110 kts 120°
2026-04-22 19:23 14.15094 1.50897 3002 ft 110 kts 120°
2026-04-22 19:23 14.14639 1.51527 3002 ft 110 kts 120°
2026-04-22 19:24 14.14182 1.52158 3005 ft 110 kts 120°
2026-04-22 19:24 14.13726 1.52786 3005 ft 110 kts 120°
2026-04-22 19:24 14.13280 1.53410 3005 ft 110 kts 120°
2026-04-22 19:24 14.12828 1.54044 3006 ft 110 kts 120°
2026-04-22 19:25 14.12374 1.54680 3009 ft 110 kts 120°
2026-04-22 19:25 14.11919 1.55315 3009 ft 110 kts 120°
2026-04-22 19:25 14.11465 1.55955 3009 ft 111 kts 120°
2026-04-22 19:25 14.11010 1.56602 3009 ft 112 kts 120°
2026-04-22 19:26 14.10553 1.57255 3004 ft 112 kts 120°
2026-04-22 19:26 14.10100 1.57904 3004 ft 113 kts 120°
2026-04-22 19:26 14.09641 1.58563 3005 ft 113 kts 120°
2026-04-22 19:26 14.09181 1.59222 3005 ft 114 kts 119°
2026-04-22 19:27 14.08719 1.59883 3004 ft 113 kts 120°
2026-04-22 19:27 14.08258 1.60540 3006 ft 113 kts 120°
2026-04-22 19:27 14.07803 1.61190 3006 ft 113 kts 119°
2026-04-22 19:27 14.07340 1.61847 3007 ft 114 kts 119°
2026-04-22 19:28 14.06874 1.62505 3012 ft 113 kts 120°
2026-04-22 19:28 14.06409 1.63160 3011 ft 113 kts 119°
2026-04-22 19:28 14.05944 1.63810 3011 ft 112 kts 119°
2026-04-22 19:28 14.05478 1.64449 3011 ft 111 kts 119°
2026-04-22 19:29 14.05014 1.65082 3005 ft 110 kts 120°
2026-04-22 19:29 14.04552 1.65714 3005 ft 111 kts 120°
2026-04-22 19:29 14.04092 1.66351 3005 ft 111 kts 120°
2026-04-22 19:29 14.03634 1.66989 3005 ft 111 kts 120°
2026-04-22 19:30 14.03331 1.67411 3007 ft 110 kts 119°
2026-04-22 19:30 14.02724 1.68252 3007 ft 110 kts 119°
2026-04-22 19:30 14.02266 1.68885 3007 ft 110 kts 120°
2026-04-22 19:30 14.01807 1.69520 3007 ft 111 kts 120°
2026-04-22 19:31 14.01348 1.70156 3006 ft 111 kts 120°
2026-04-22 19:31 14.00889 1.70796 3006 ft 111 kts 120°
2026-04-22 19:31 14.00432 1.71435 3007 ft 111 kts 120°
2026-04-22 19:31 13.99979 1.72067 3007 ft 111 kts 120°
2026-04-22 19:32 13.99520 1.72709 3010 ft 111 kts 120°
2026-04-22 19:32 13.99062 1.73351 3010 ft 111 kts 120°
2026-04-22 19:32 13.98602 1.73995 3010 ft 112 kts 120°
2026-04-22 19:32 13.98141 1.74644 3010 ft 112 kts 120°
2026-04-22 19:33 13.97678 1.75297 3006 ft 113 kts 120°
2026-04-22 19:33 13.97209 1.75956 3007 ft 114 kts 120°
2026-04-22 19:33 13.96739 1.76616 3006 ft 114 kts 120°
2026-04-22 19:33 13.96268 1.77277 3006 ft 115 kts 120°
2026-04-22 19:34 13.95802 1.77932 3005 ft 115 kts 120°
2026-04-22 19:34 13.95329 1.78597 3005 ft 115 kts 120°
2026-04-22 19:34 13.94857 1.79262 3004 ft 114 kts 120°
2026-04-22 19:34 13.94390 1.79921 3003 ft 114 kts 120°
2026-04-22 19:35 13.93925 1.80577 3003 ft 113 kts 120°
2026-04-22 19:35 13.93462 1.81233 3004 ft 113 kts 120°
2026-04-22 19:35 13.93154 1.81670 3004 ft 114 kts 119°
2026-04-22 19:35 13.92529 1.82558 3005 ft 115 kts 120°
2026-04-22 19:36 13.92066 1.83216 3009 ft 115 kts 120°
2026-04-22 19:36 13.91597 1.83884 3009 ft 115 kts 120°
2026-04-22 19:36 13.91129 1.84552 3009 ft 115 kts 120°
2026-04-22 19:36 13.90665 1.85211 3007 ft 112 kts 120°
2026-04-22 19:37 13.90207 1.85860 3006 ft 111 kts 120°
2026-04-22 19:37 13.89895 1.86542 2995 ft 104 kts 95°
2026-04-22 19:37 13.89666 1.87255 2997 ft 107 kts 112°
2026-04-22 19:37 13.89135 1.87824 3000 ft 112 kts 132°
2026-04-22 19:38 13.88539 1.88341 2998 ft 112 kts 133°
2026-04-22 19:38 13.87930 1.88847 2997 ft 112 kts 134°
2026-04-22 19:38 13.87316 1.89347 2997 ft 112 kts 134°
2026-04-22 19:38 13.86700 1.89844 2998 ft 112 kts 135°
2026-04-22 19:39 13.86080 1.90341 2996 ft 113 kts 135°
2026-04-22 19:39 13.85459 1.90838 2996 ft 113 kts 135°
2026-04-22 19:39 13.84838 1.91334 3003 ft 112 kts 135°
2026-04-22 19:39 13.84234 1.91816 3004 ft 110 kts 135°
2026-04-22 19:40 13.83629 1.92299 3004 ft 109 kts 135°
2026-04-22 19:40 13.83029 1.92779 3003 ft 109 kts 135°
2026-04-22 19:40 13.82433 1.93256 3002 ft 108 kts 135°
2026-04-22 19:40 13.81836 1.93733 3003 ft 109 kts 135°
2026-04-22 19:41 13.81238 1.94211 3006 ft 109 kts 135°
2026-04-22 19:41 13.80637 1.94691 3007 ft 109 kts 135°
2026-04-22 19:41 13.80033 1.95173 3008 ft 110 kts 136°
2026-04-22 19:41 13.79427 1.95657 3009 ft 110 kts 136°
2026-04-22 19:42 13.78818 1.96143 3008 ft 111 kts 136°
2026-04-22 19:42 13.78215 1.96624 3009 ft 111 kts 135°
2026-04-22 19:42 13.77605 1.97111 3009 ft 110 kts 135°
2026-04-22 19:42 13.77006 1.97589 3008 ft 108 kts 135°
2026-04-22 19:43 13.75822 1.98534 3003 ft 107 kts 135°
2026-04-22 19:43 13.75233 1.99004 3003 ft 106 kts 135°
2026-04-22 19:43 13.74652 1.99468 3001 ft 105 kts 135°
2026-04-22 19:44 13.74076 1.99929 3000 ft 104 kts 135°
2026-04-22 19:44 13.73503 2.00388 2999 ft 104 kts 135°
2026-04-22 19:44 13.72932 2.00845 2998 ft 104 kts 135°
2026-04-22 19:44 13.72371 2.01295 2998 ft 104 kts 135°
2026-04-22 19:45 13.71800 2.01751 2996 ft 104 kts 135°
2026-04-22 19:45 13.71227 2.02210 2997 ft 104 kts 135°
2026-04-22 19:45 13.70652 2.02671 2999 ft 105 kts 135°
2026-04-22 19:45 13.70075 2.03132 3000 ft 105 kts 135°
2026-04-22 19:46 13.69506 2.03588 3002 ft 105 kts 135°
2026-04-22 19:46 13.68826 2.03887 3006 ft 114 kts 171°
2026-04-22 19:46 13.68024 2.03837 3007 ft 116 kts 178°
2026-04-22 19:46 13.67223 2.03726 3009 ft 116 kts 181°
2026-04-22 19:47 13.66427 2.03605 3012 ft 116 kts 181°
2026-04-22 19:47 13.65632 2.03476 3012 ft 115 kts 181°
2026-04-22 19:47 13.65106 2.03388 3011 ft 115 kts 181°
2026-04-22 19:47 13.64045 2.03209 3007 ft 116 kts 182°
2026-04-22 19:48 13.63247 2.03088 3004 ft 115 kts 181°
2026-04-22 19:48 13.62464 2.02972 3004 ft 115 kts 181°
2026-04-22 19:48 13.61673 2.02857 3004 ft 114 kts 182°
2026-04-22 19:48 13.60900 2.02619 3005 ft 116 kts 193°
2026-04-22 19:49 13.60167 2.02253 3007 ft 119 kts 206°
2026-04-22 19:49 13.59451 2.01808 3007 ft 120 kts 206°
2026-04-22 19:49 13.58724 2.01377 3008 ft 121 kts 205°
2026-04-22 19:49 13.58243 2.01087 3008 ft 121 kts 205°
2026-04-22 19:50 13.57528 2.00640 3009 ft 120 kts 205°
2026-04-22 19:50 13.56579 2.00051 3010 ft 120 kts 206°
2026-04-22 19:50 13.55855 1.99623 3008 ft 120 kts 202°
2026-04-22 19:50 13.55067 1.99426 3004 ft 116 kts 178°
2026-04-22 19:51 13.54524 1.99397 3004 ft 115 kts 174°
2026-04-22 19:51 13.53718 1.99358 3006 ft 116 kts 174°
2026-04-22 19:51 13.52913 1.99318 3007 ft 115 kts 174°
2026-04-22 19:51 13.52131 1.99279 3006 ft 114 kts 174°
2026-04-22 19:52 13.51342 1.99238 3005 ft 113 kts 175°
2026-04-22 19:52 13.50552 1.99216 3005 ft 114 kts 174°
2026-04-22 19:52 13.49757 1.99203 3005 ft 114 kts 171°
2026-04-22 19:52 13.49022 1.99415 2997 ft 108 kts 143°
2026-04-22 19:53 13.48485 1.99914 2993 ft 103 kts 124°
2026-04-22 19:53 13.48110 2.00494 2992 ft 93 kts 102°
2026-04-22 19:53 13.47950 2.01127 2995 ft 92 kts 97°
2026-04-22 19:53 13.47794 2.01765 2994 ft 92 kts 97°
2026-04-22 19:54 13.47640 2.02403 2993 ft 92 kts 97°
2026-04-22 19:54 13.47516 2.03055 2941 ft 92 kts 88°
2026-04-22 19:54 13.47540 2.03713 2900 ft 93 kts 79°
2026-04-22 19:54 13.47651 2.04362 2855 ft 94 kts 73°
2026-04-22 19:55 13.47813 2.05025 2795 ft 98 kts 73°
2026-04-22 19:55 13.47967 2.05717 2707 ft 99 kts 78°
2026-04-22 19:55 13.47998 2.06415 2616 ft 97 kts 86°
2026-04-22 19:55 13.47986 2.07112 2523 ft 98 kts 86°
2026-04-22 19:56 13.47971 2.07813 2431 ft 98 kts 86°
2026-04-22 19:56 13.47953 2.08521 2312 ft 100 kts 86°
2026-04-22 19:56 13.47937 2.09243 2173 ft 102 kts 86°
2026-04-22 19:56 13.47952 2.09966 2034 ft 101 kts 82°
2026-04-22 19:57 13.48014 2.10673 1893 ft 100 kts 79°
2026-04-22 19:57 13.48069 2.11348 1756 ft 89 kts 80°
2026-04-22 19:57 13.48117 2.11966 1617 ft 85 kts 76°
2026-04-22 19:57 13.48233 2.12545 1538 ft 81 kts 78°
2026-04-22 19:58 13.48302 2.13139 1463 ft 84 kts 78°
2026-04-22 19:58 13.48318 2.13725 1398 ft 84 kts 87°
2026-04-22 19:58 13.48304 2.14330 1339 ft 85 kts 83°
2026-04-22 19:58 13.48321 2.14938 1250 ft 86 kts 88°
2026-04-22 19:59 13.48326 2.15541 1114 ft 84 kts 87°
2026-04-22 20:00 13.48532 2.18360 731 ft 34 kts 89°
2026-04-22 20:00 13.48540 2.18578 729 ft 28 kts 87°
2026-04-22 20:01 13.48550 2.18758 727 ft 25 kts 87°
2026-04-22 20:01 13.48556 2.18934 726 ft 24 kts 89°
2026-04-22 20:01 13.48562 2.19103 724 ft 28 kts 88°
2026-04-22 20:01 13.48574 2.19357 722 ft 34 kts 87°
2026-04-22 20:02 13.48571 2.19578 722 ft 29 kts 113°
2026-04-22 20:02 13.48431 2.19644 719 ft 12 kts 175°
2026-04-22 20:02 13.48389 2.19647 719 ft 0 kts 175°
2026-04-22 20:03 13.48369 2.19649 719 ft 6 kts 176°
2026-04-22 20:03 13.48295 2.19671 719 ft 17 kts 160°
2026-04-22 20:04 13.48179 2.19706 719 ft 18 kts 171°
2026-04-22 20:04 13.48095 2.19639 721 ft 20 kts 259°
2026-04-22 20:04 13.48085 2.19512 722 ft 16 kts 266°
2026-04-22 20:04 13.48081 2.19403 722 ft 17 kts 267°
2026-04-22 20:05 13.48074 2.19285 723 ft 16 kts 268°
2026-04-22 20:05 13.48070 2.19176 724 ft 13 kts 268°
2026-04-22 20:05 13.48065 2.19048 725 ft 22 kts 267°
2026-04-22 20:05 13.48058 2.18874 726 ft 23 kts 266°
2026-04-22 20:06 13.48050 2.18724 728 ft 20 kts 268°
2026-04-22 20:06 13.48047 2.18588 729 ft 19 kts 268°
2026-04-22 20:06 13.47975 2.18519 730 ft 16 kts 178°
2026-04-22 20:06 13.47904 2.18465 730 ft 13 kts 267°
2026-04-22 20:07 13.47901 2.18365 731 ft 13 kts 267°
2026-04-22 20:07 13.47898 2.18270 732 ft 16 kts 269°
2026-04-22 20:07 13.47894 2.18140 733 ft 19 kts 269°
2026-04-22 20:07 13.47892 2.18016 734 ft 15 kts 269°
2026-04-22 20:08 13.47888 2.17968 734 ft 0 kts 265°
2026-04-22 20:08 13.47887 2.17966 734 ft 4 kts 250°
2026-04-22 20:08 13.47879 2.17924 735 ft 11 kts 266°
2026-04-22 20:08 13.47877 2.17885 735 ft 0 kts 270°
2026-04-22 20:09 13.47877 2.17877 735 ft 6 kts 267°
2026-04-22 20:09 13.47827 2.17859 735 ft 13 kts 194°
2026-04-22 20:09 13.47788 2.17877 735 ft 6 kts 346°
2026-04-22 20:09 13.47815 2.17872 735 ft 2 kts
2026-04-22 20:10 13.47817 2.17872 735 ft 0 kts
2026-04-22 20:10 13.47876 2.17851 735 ft 15 kts 296°
2026-04-22 20:11 13.47878 2.17788 736 ft 7 kts 267°
2026-04-22 20:11 13.47848 2.17754 736 ft 7 kts 185°
2026-04-22 20:11 13.47796 2.17756 736 ft 8 kts 176°
2026-04-22 20:11 13.47775 2.17757 736 ft 0 kts 176°